AVA9346 SKBO-SKCC

Flight info

Callsign AVA9346
Flight time 0h 47m
Altitude 31000
Route OSUSU4R OSUSU DCT BUV DCT ESNUT ESNUT2A
Aircraft A320/M-SDE3FGHIRWY/LB1

Departure

Time 2026-04-20 23:53
Airport El Dorado International Airport (SKBO)

Arrival

Time 2026-04-21 00:40
Airport Camilo Daza International Airport (SKCC)
Time Latitude Longitude Altitude Speed Heading
2026-04-20 23:09 4.69691 -74.14407 8366 ft 0 kts 39°
2026-04-20 23:26 4.69691 -74.14408 8366 ft 0 kts 39°
2026-04-20 23:38 4.69688 -74.14409 8366 ft 2 kts 38°
2026-04-20 23:38 4.69674 -74.14420 8366 ft 3 kts 26°
2026-04-20 23:39 4.69655 -74.14427 8366 ft 3 kts
2026-04-20 23:39 4.69637 -74.14425 8366 ft 3 kts 323°
2026-04-20 23:39 4.69630 -74.14420 8366 ft 1 kts 306°
2026-04-20 23:39 4.69640 -74.14433 8366 ft 3 kts 307°
2026-04-20 23:40 4.69651 -74.14447 8366 ft 2 kts 307°
2026-04-20 23:40 4.69653 -74.14450 8366 ft 1 kts 307°
2026-04-20 23:43 4.69656 -74.14455 8366 ft 2 kts 307°
2026-04-20 23:43 4.69670 -74.14474 8366 ft 5 kts 307°
2026-04-20 23:44 4.69692 -74.14503 8366 ft 6 kts 307°
2026-04-20 23:44 4.69718 -74.14538 8366 ft 7 kts 307°
2026-04-20 23:44 4.69750 -74.14580 8366 ft 8 kts 307°
2026-04-20 23:44 4.69787 -74.14628 8366 ft 9 kts 307°
2026-04-20 23:45 4.69829 -74.14684 8366 ft 11 kts 307°
2026-04-20 23:45 4.69874 -74.14747 8366 ft 12 kts 304°
2026-04-20 23:45 4.69942 -74.14767 8366 ft 12 kts 31°
2026-04-20 23:45 4.70012 -74.14714 8366 ft 13 kts 37°
2026-04-20 23:46 4.70088 -74.14657 8366 ft 14 kts 37°
2026-04-20 23:46 4.70169 -74.14596 8366 ft 15 kts 37°
2026-04-20 23:46 4.70256 -74.14531 8366 ft 16 kts 37°
2026-04-20 23:46 4.70334 -74.14472 8366 ft 10 kts 37°
2026-04-20 23:47 4.70390 -74.14429 8366 ft 11 kts 37°
2026-04-20 23:47 4.70453 -74.14391 8367 ft 11 kts
2026-04-20 23:47 4.70511 -74.14439 8367 ft 12 kts 308°
2026-04-20 23:47 4.70562 -74.14506 8366 ft 13 kts 307°
2026-04-20 23:48 4.70617 -74.14578 8367 ft 14 kts 307°
2026-04-20 23:48 4.70676 -74.14656 8367 ft 15 kts 307°
2026-04-20 23:48 4.70738 -74.14739 8367 ft 16 kts 307°
2026-04-20 23:48 4.70807 -74.14830 8366 ft 17 kts 307°
2026-04-20 23:49 4.70877 -74.14924 8366 ft 17 kts 307°
2026-04-20 23:49 4.70952 -74.15022 8366 ft 18 kts 307°
2026-04-20 23:49 4.71030 -74.15125 8366 ft 19 kts 307°
2026-04-20 23:49 4.71087 -74.15200 8366 ft 10 kts 313°
2026-04-20 23:50 4.71154 -74.15215 8366 ft 11 kts 355°
2026-04-20 23:50 4.71210 -74.15220 8366 ft 0 kts 354°
2026-04-20 23:51 4.71213 -74.15221 8366 ft 1 kts 354°
2026-04-20 23:51 4.71234 -74.15223 8366 ft 5 kts 354°
2026-04-20 23:51 4.71282 -74.15226 8366 ft 9 kts
2026-04-20 23:52 4.71312 -74.15170 8365 ft 12 kts 108°
2026-04-20 23:52 4.71248 -74.15086 8365 ft 22 kts 127°
2026-04-20 23:52 4.71018 -74.14781 8365 ft 91 kts 127°
2026-04-20 23:52 4.70504 -74.14099 8366 ft 151 kts 127°
2026-04-20 23:53 4.69767 -74.13128 8434 ft 194 kts 127°
2026-04-20 23:53 4.68946 -74.12043 9248 ft 194 kts 122°
2026-04-20 23:53 4.68633 -74.10769 9928 ft 191 kts 76°
2026-04-20 23:53 4.69305 -74.09668 10463 ft 188 kts 35°
2026-04-20 23:54 4.70479 -74.09141 10965 ft 186 kts 16°
2026-04-20 23:54 4.71737 -74.08752 11339 ft 196 kts 16°
2026-04-20 23:54 4.73111 -74.08316 11491 ft 218 kts 17°
2026-04-20 23:54 4.74635 -74.07824 11666 ft 240 kts 17°
2026-04-20 23:55 4.76250 -74.07296 12269 ft 246 kts 17°
2026-04-20 23:55 4.77889 -74.06755 12963 ft 249 kts 17°
2026-04-20 23:55 4.79567 -74.06199 13496 ft 263 kts 18°
2026-04-20 23:55 4.81374 -74.05593 13738 ft 286 kts 18°
2026-04-20 23:56 4.83332 -74.04933 14092 ft 304 kts 18°
2026-04-20 23:56 4.85364 -74.04246 14657 ft 311 kts 18°
2026-04-20 23:56 4.87428 -74.03544 15288 ft 315 kts 18°
2026-04-20 23:56 4.89513 -74.02832 15938 ft 319 kts 18°
2026-04-20 23:57 4.91634 -74.02111 16576 ft 323 kts 18°
2026-04-20 23:57 4.93774 -74.01384 17206 ft 327 kts 18°
2026-04-20 23:57 4.95942 -74.00649 17829 ft 331 kts 18°
2026-04-20 23:57 4.98130 -73.99909 18452 ft 335 kts 18°
2026-04-20 23:58 5.00354 -73.99171 18980 ft 338 kts 17°
2026-04-20 23:58 5.02672 -73.98502 19164 ft 356 kts 14°
2026-04-20 23:58 5.05128 -73.97877 19279 ft 372 kts 13°
2026-04-20 23:58 5.07688 -73.97266 19607 ft 381 kts 13°
2026-04-20 23:59 5.10283 -73.96654 20055 ft 386 kts 13°
2026-04-20 23:59 5.12905 -73.96025 20525 ft 390 kts 13°
2026-04-20 23:59 5.15554 -73.95374 20991 ft 394 kts 13°
2026-04-20 23:59 5.18223 -73.94702 21455 ft 397 kts 14°
2026-04-21 00:00 5.20915 -73.94017 21902 ft 401 kts 14°
2026-04-21 00:00 5.23635 -73.93325 22347 ft 405 kts 13°
2026-04-21 00:00 5.26383 -73.92629 22783 ft 409 kts 14°
2026-04-21 00:00 5.29150 -73.91930 23218 ft 412 kts 13°
2026-04-21 00:01 5.31946 -73.91227 23663 ft 416 kts 13°
2026-04-21 00:01 5.34760 -73.90521 24062 ft 419 kts 13°
2026-04-21 00:01 5.37598 -73.89808 24435 ft 422 kts 14°
2026-04-21 00:01 5.40453 -73.89089 24806 ft 424 kts 14°
2026-04-21 00:02 5.43285 -73.88375 25176 ft 427 kts 14°
2026-04-21 00:02 5.46205 -73.87636 25547 ft 429 kts 14°
2026-04-21 00:02 5.49119 -73.86899 25928 ft 431 kts 14°
2026-04-21 00:02 5.52028 -73.86128 26297 ft 434 kts 18°
2026-04-21 00:03 5.54822 -73.84965 26647 ft 436 kts 28°
2026-04-21 00:03 5.57477 -73.83476 27004 ft 439 kts 30°
2026-04-21 00:03 5.60149 -73.81970 27358 ft 441 kts 29°
2026-04-21 00:03 5.62829 -73.80471 27702 ft 444 kts 29°
2026-04-21 00:04 5.65536 -73.78965 28046 ft 446 kts 29°
2026-04-21 00:04 5.68264 -73.77448 28392 ft 449 kts 29°
2026-04-21 00:04 5.71004 -73.75923 28731 ft 451 kts 29°
2026-04-21 00:04 5.73757 -73.74390 29068 ft 453 kts 29°
2026-04-21 00:05 5.76521 -73.72844 29407 ft 456 kts 29°
2026-04-21 00:05 5.79297 -73.71288 29744 ft 458 kts 30°
2026-04-21 00:05 5.82088 -73.69722 30088 ft 460 kts 29°
2026-04-21 00:05 5.84887 -73.68155 30382 ft 463 kts 29°
2026-04-21 00:06 5.87703 -73.66580 30660 ft 465 kts 29°
2026-04-21 00:06 5.90538 -73.64997 30932 ft 467 kts 29°
2026-04-21 00:06 5.93378 -73.63410 31128 ft 468 kts 29°
2026-04-21 00:06 5.96196 -73.61835 31166 ft 456 kts 29°
2026-04-21 00:07 5.98928 -73.60313 31163 ft 443 kts 29°
2026-04-21 00:07 6.01662 -73.58810 31162 ft 454 kts 29°
2026-04-21 00:07 6.04454 -73.57259 31153 ft 460 kts 31°
2026-04-21 00:07 6.07034 -73.55462 31143 ft 444 kts 36°
2026-04-21 00:08 6.09506 -73.53659 31140 ft 433 kts 36°
2026-04-21 00:08 6.14343 -73.50117 31134 ft 429 kts 36°
2026-04-21 00:09 6.19154 -73.46586 31123 ft 428 kts 36°
2026-04-21 00:09 6.23967 -73.43051 31117 ft 428 kts 36°
2026-04-21 00:10 6.27962 -73.40122 31108 ft 428 kts 36°
2026-04-21 00:10 6.32779 -73.36586 31100 ft 428 kts 37°
2026-04-21 00:11 6.37582 -73.33055 31091 ft 428 kts 36°
2026-04-21 00:11 6.42398 -73.29521 31085 ft 428 kts 36°
2026-04-21 00:12 6.47211 -73.25993 31075 ft 428 kts 36°
2026-04-21 00:12 6.52022 -73.22467 31066 ft 428 kts 36°
2026-04-21 00:13 6.56831 -73.18931 31065 ft 428 kts 36°
2026-04-21 00:13 6.61648 -73.15398 31059 ft 428 kts 36°
2026-04-21 00:14 6.66464 -73.11866 31057 ft 428 kts 36°
2026-04-21 00:14 6.71275 -73.08331 31050 ft 428 kts 36°
2026-04-21 00:15 6.76082 -73.04795 31053 ft 428 kts 36°
2026-04-21 00:15 6.80885 -73.01258 30875 ft 423 kts 36°
2026-04-21 00:15 6.83248 -72.99521 30473 ft 419 kts 36°
2026-04-21 00:16 6.85586 -72.97806 30050 ft 415 kts 36°
2026-04-21 00:16 6.87913 -72.96096 29544 ft 412 kts 36°
2026-04-21 00:16 6.90218 -72.94397 29078 ft 409 kts 36°
2026-04-21 00:16 6.92501 -72.92715 28619 ft 405 kts 36°
2026-04-21 00:17 6.94763 -72.91052 28173 ft 402 kts 36°
2026-04-21 00:17 6.97013 -72.89398 27725 ft 398 kts 36°
2026-04-21 00:17 6.99241 -72.87759 27292 ft 395 kts 36°
2026-04-21 00:17 7.01451 -72.86134 26864 ft 392 kts 36°
2026-04-21 00:18 7.03644 -72.84521 26449 ft 389 kts 36°
2026-04-21 00:18 7.05818 -72.82919 26028 ft 386 kts 36°
2026-04-21 00:18 7.07975 -72.81330 25609 ft 383 kts 36°
2026-04-21 00:18 7.10120 -72.79749 25208 ft 380 kts 36°
2026-04-21 00:19 7.12251 -72.78179 24794 ft 378 kts 36°
2026-04-21 00:19 7.14364 -72.76624 24399 ft 375 kts 36°
2026-04-21 00:19 7.16463 -72.75078 23998 ft 373 kts 36°
2026-04-21 00:19 7.18548 -72.73540 23584 ft 371 kts 36°
2026-04-21 00:20 7.20623 -72.72010 23138 ft 368 kts 36°
2026-04-21 00:20 7.22675 -72.70494 22716 ft 365 kts 36°
2026-04-21 00:20 7.24716 -72.68988 22302 ft 362 kts 36°
2026-04-21 00:20 7.26741 -72.67497 21902 ft 359 kts 36°
2026-04-21 00:21 7.28750 -72.66019 21489 ft 357 kts 36°
2026-04-21 00:21 7.30744 -72.64551 21092 ft 354 kts 36°
2026-04-21 00:21 7.32723 -72.63092 20703 ft 351 kts 36°
2026-04-21 00:21 7.34688 -72.61643 20326 ft 349 kts 36°
2026-04-21 00:22 7.36641 -72.60205 19948 ft 346 kts 36°
2026-04-21 00:22 7.38581 -72.58775 19587 ft 344 kts 36°
2026-04-21 00:22 7.40499 -72.57360 19228 ft 342 kts 36°
2026-04-21 00:22 7.42418 -72.55945 18871 ft 340 kts 36°
2026-04-21 00:23 7.44321 -72.54539 18516 ft 338 kts 36°
2026-04-21 00:23 7.46209 -72.53145 18163 ft 336 kts 36°
2026-04-21 00:23 7.48088 -72.51764 17786 ft 333 kts 34°
2026-04-21 00:23 7.50104 -72.50664 17275 ft 328 kts 20°
2026-04-21 00:24 7.52308 -72.50116 16621 ft 325 kts
2026-04-21 00:24 7.54559 -72.50102 15978 ft 322 kts 358°
2026-04-21 00:24 7.56791 -72.50189 15370 ft 319 kts 358°
2026-04-21 00:24 7.58999 -72.50266 14786 ft 316 kts 358°
2026-04-21 00:25 7.61195 -72.50336 14206 ft 313 kts 358°
2026-04-21 00:25 7.63363 -72.50403 13619 ft 310 kts 358°
2026-04-21 00:25 7.65513 -72.50468 12986 ft 307 kts 358°
2026-04-21 00:25 7.67610 -72.50533 12363 ft 305 kts 358°
2026-04-21 00:26 7.69762 -72.50602 11636 ft 305 kts 358°
2026-04-21 00:26 7.71851 -72.50669 10955 ft 305 kts 358°
2026-04-21 00:26 7.73992 -72.50738 10313 ft 302 kts 358°
2026-04-21 00:26 7.76067 -72.50808 9866 ft 294 kts 358°
2026-04-21 00:27 7.78049 -72.50875 9391 ft 285 kts 358°
2026-04-21 00:27 7.80008 -72.50939 8910 ft 277 kts 358°
2026-04-21 00:27 7.81933 -72.51000 8433 ft 270 kts 358°
2026-04-21 00:27 7.83785 -72.51055 7968 ft 263 kts 358°
2026-04-21 00:28 7.85589 -72.51110 7514 ft 257 kts 358°
2026-04-21 00:28 7.87357 -72.51165 7072 ft 251 kts 358°
2026-04-21 00:28 7.89092 -72.51221 6628 ft 248 kts 358°
2026-04-21 00:28 7.90786 -72.51277 6183 ft 246 kts 358°
2026-04-21 00:29 7.92485 -72.51331 5793 ft 241 kts 358°
2026-04-21 00:29 7.94143 -72.51362 5573 ft 228 kts
2026-04-21 00:29 7.95652 -72.51324 5449 ft 213 kts
2026-04-21 00:29 7.97082 -72.51263 5325 ft 200 kts
2026-04-21 00:30 7.98439 -72.51203 5148 ft 191 kts
2026-04-21 00:30 7.99761 -72.51146 4865 ft 189 kts
2026-04-21 00:30 8.01075 -72.51092 4561 ft 189 kts
2026-04-21 00:30 8.02376 -72.51041 4415 ft 187 kts
2026-04-21 00:31 8.03686 -72.50989 4407 ft 188 kts
2026-04-21 00:31 8.04994 -72.50942 4406 ft 189 kts
2026-04-21 00:31 8.06307 -72.50894 4406 ft 188 kts
2026-04-21 00:31 8.07619 -72.50846 4407 ft 189 kts
2026-04-21 00:32 8.08926 -72.50799 4417 ft 189 kts
2026-04-21 00:32 8.10241 -72.50750 4405 ft 189 kts
2026-04-21 00:32 8.11556 -72.50701 4404 ft 189 kts
2026-04-21 00:32 8.12865 -72.50654 4400 ft 189 kts
2026-04-21 00:33 8.14146 -72.50608 4397 ft 177 kts
2026-04-21 00:33 8.15360 -72.50544 4390 ft 173 kts
2026-04-21 00:33 8.16473 -72.50129 4392 ft 172 kts 32°
2026-04-21 00:33 8.17347 -72.49302 4393 ft 173 kts 54°
2026-04-21 00:34 8.17830 -72.48201 4393 ft 173 kts 77°
2026-04-21 00:34 8.17856 -72.46987 4389 ft 174 kts 99°
2026-04-21 00:34 8.17416 -72.45856 4393 ft 175 kts 122°
2026-04-21 00:34 8.16573 -72.44982 4395 ft 176 kts 146°
2026-04-21 00:35 8.15450 -72.44506 4394 ft 176 kts 169°
2026-04-21 00:35 8.14230 -72.44522 4398 ft 177 kts 193°
2026-04-21 00:35 8.13053 -72.44876 4402 ft 177 kts 197°
2026-04-21 00:35 8.11892 -72.45237 4404 ft 177 kts 197°
2026-04-21 00:36 8.10697 -72.45607 4329 ft 178 kts 197°
2026-04-21 00:36 8.09517 -72.45972 4139 ft 177 kts 197°
2026-04-21 00:36 8.08346 -72.46334 3930 ft 176 kts 197°
2026-04-21 00:36 8.07199 -72.46689 3727 ft 175 kts 197°
2026-04-21 00:37 8.06043 -72.47047 3491 ft 174 kts 197°
2026-04-21 00:37 8.04890 -72.47403 3293 ft 173 kts 197°
2026-04-21 00:37 8.03746 -72.47757 3081 ft 168 kts 197°
2026-04-21 00:37 8.02637 -72.48099 2888 ft 166 kts 197°
2026-04-21 00:38 8.01539 -72.48439 2684 ft 165 kts 197°
2026-04-21 00:38 8.00443 -72.48778 2466 ft 163 kts 197°
2026-04-21 00:38 7.99372 -72.49108 2223 ft 159 kts 197°
2026-04-21 00:38 7.98335 -72.49429 2006 ft 151 kts 197°
2026-04-21 00:39 7.97354 -72.49732 1808 ft 145 kts 197°
2026-04-21 00:39 7.96393 -72.50029 1622 ft 143 kts 198°
2026-04-21 00:39 7.95439 -72.50324 1441 ft 143 kts 198°
2026-04-21 00:39 7.94486 -72.50619 1257 ft 143 kts 198°
2026-04-21 00:40 7.93535 -72.50912 1051 ft 143 kts 198°
2026-04-21 00:40 7.92669 -72.51184 1032 ft 103 kts 197°
2026-04-21 00:40 7.92241 -72.51319 1052 ft 45 kts 198°
2026-04-21 00:40 7.91955 -72.51410 1057 ft 41 kts 197°
2026-04-21 00:41 7.91837 -72.51441 1058 ft 6 kts 241°
2026-04-21 00:41 7.91879 -72.51438 1057 ft 11 kts 29°
2026-04-21 00:41 7.91964 -72.51407 1057 ft 14 kts 16°
2026-04-21 00:41 7.92072 -72.51372 1055 ft 19 kts 18°
2026-04-21 00:42 7.92231 -72.51320 1052 ft 28 kts 17°
2026-04-21 00:42 7.92436 -72.51256 1042 ft 33 kts 17°
2026-04-21 00:42 7.92645 -72.51190 1033 ft 17 kts 18°
2026-04-21 00:42 7.92729 -72.51133 1032 ft 15 kts 63°
2026-04-21 00:43 7.92762 -72.51068 1031 ft 0 kts 63°
2026-04-21 00:43 7.92762 -72.51067 1031 ft 1 kts 63°
2026-04-21 00:44 7.92768 -72.51056 1032 ft 3 kts 63°
2026-04-21 00:44 7.92778 -72.51024 1032 ft 7 kts 87°
2026-04-21 00:44 7.92798 -72.50970 1032 ft 9 kts 61°
2026-04-21 00:45 7.92873 -72.50883 1032 ft 7 kts 66°
2026-04-21 00:45 7.92863 -72.50845 1032 ft 0 kts 116°
2026-04-21 00:45 7.92858 -72.50834 1032 ft 4 kts 116°
2026-04-21 00:45 7.92843 -72.50814 1032 ft 3 kts 159°
2026-04-21 00:46 7.92818 -72.50822 1032 ft 7 kts 206°
2026-04-21 00:46 7.92803 -72.50830 1032 ft 1 kts 207°
2026-04-21 00:46 7.92796 -72.50833 1032 ft 1 kts 208°
2026-04-21 00:46 7.92792 -72.50835 1032 ft 0 kts 207°